Location: Dimsdale
(55.1333°N, 118.9833°W)
Time: 12:07:24
(UTC+00:00)

SO-50 - Visible Passes

Search period start: 05 December 2023 00:00
Search period end: 15 December 2023 00:00
Orbit: 601 x 670 km, 64.6° (Epoch: 04 December)

Date Brightness Start Highest point End Pass type
(mag) Time Alt. Az. Time Alt. Az. Time Alt. Az.
05 Dec ? 11:26:32 16° ENE 11:26:32 16° ENE 11:27:36 10° ENE visible
05 Dec ? 13:04:01 55° N 13:04:01 55° N 13:08:07 10° NE visible
05 Dec ? 14:41:31 15° WNW 14:44:35 28° NNW 14:48:35 10° NE visible
06 Dec ? 11:48:47 21° NE 11:48:47 21° NE 11:50:23 10° NE visible
06 Dec ? 13:26:16 41° NNW 13:26:18 41° NNW 13:30:42 10° NE visible
06 Dec ? 15:03:45 10° WNW 15:07:37 25° N 15:11:28 10° NE visible
07 Dec ? 12:10:58 26° NE 12:10:58 26° NE 12:12:59 10° NE visible
07 Dec ? 13:48:26 29° NW 13:49:13 31° NNW 13:53:20 10° NE visible
08 Dec ? 12:33:05 29° NNE 12:33:05 29° NNE 12:35:33 10° NE visible
08 Dec ? 14:10:33 22° NW 14:12:11 27° N 14:16:06 10° NE visible
09 Dec ? 11:17:40 11° NE 11:17:40 11° NE 11:17:48 10° NE visible
09 Dec ? 12:55:08 30° N 12:55:08 30° N 12:58:07 10° NE visible
09 Dec ? 14:32:37 16° NW 14:35:13 25° N 14:39:03 10° ENE visible
10 Dec ? 11:39:42 14° NE 11:39:42 14° NE 11:40:22 10° NE visible
10 Dec ? 13:17:10 28° N 13:17:10 28° N 13:20:47 10° NE visible
10 Dec ? 14:54:38 12° NW 14:58:14 27° N 15:02:08 10° ENE visible
11 Dec ? 12:01:42 17° NE 12:01:42 17° NE 12:02:55 10° NE visible
11 Dec ? 13:39:10 25° NNW 13:39:45 26° N 13:43:37 10° NE visible
11 Dec ? 15:17:01 10° NW 15:21:11 32° NNE 15:25:16 10° E visible
12 Dec ? 12:23:41 21° NNE 12:23:41 21° NNE 12:25:30 10° NE visible
12 Dec ? 14:01:09 21° NNW 14:02:46 26° N 14:06:36 10° ENE visible
13 Dec ? 12:45:39 23° NNE 12:45:39 23° NNE 12:48:13 10° NE visible
13 Dec ? 14:23:07 17° NW 14:25:45 28° NNE 14:29:42 10° ENE visible
14 Dec ? 11:30:08 11° NE 11:30:08 11° NE 11:30:15 10° NE visible
14 Dec ? 13:07:36 25° N 13:07:36 25° N 13:11:05 10° NE visible
14 Dec ? 14:45:04 14° NW 14:48:39 35° NNE 14:52:50 10° E visible
